BAW414 EGLL-EDDF

Flight info

Callsign BAW414
Flight time 1h 15m
Altitude 33000
Route DET L6 DVR UL9 KONAN UL607 SPI T180 NIVNU T847 IMCOM IMCOM1A
Aircraft B77W/H-SDE1E2E3FGHIJ2J3J4J5M1RWXY/LB1D1

Departure

Time 2026-04-18 09:09
Airport London Heathrow Airport (EGLL)

Arrival

Time 2026-04-18 10:25
Airport Frankfurt Main Airport (EDDF)
Time Latitude Longitude Altitude Speed Heading
2026-04-18 08:41 51.47051 -0.48005 94 ft 0 kts 269°
2026-04-18 08:56 51.47051 -0.48002 94 ft 3 kts 269°
2026-04-18 08:56 51.47050 -0.47975 96 ft 3 kts 286°
2026-04-18 08:57 51.47031 -0.47917 94 ft 3 kts 317°
2026-04-18 08:57 51.47015 -0.47897 93 ft 3 kts 332°
2026-04-18 08:57 51.46995 -0.47883 94 ft 3 kts 343°
2026-04-18 08:58 51.46972 -0.47874 94 ft 3 kts 351°
2026-04-18 08:58 51.46951 -0.47870 95 ft 3 kts 356°
2026-04-18 08:58 51.46936 -0.47869 94 ft 2 kts 359°
2026-04-18 08:58 51.46928 -0.47869 94 ft 0 kts 360°
2026-04-18 09:01 51.46944 -0.47869 96 ft 13 kts 360°
2026-04-18 09:01 51.47048 -0.47870 95 ft 15 kts 359°
2026-04-18 09:02 51.47156 -0.47871 95 ft 16 kts 360°
2026-04-18 09:02 51.47266 -0.47872 95 ft 16 kts 360°
2026-04-18 09:02 51.47370 -0.47874 96 ft 14 kts 359°
2026-04-18 09:02 51.47470 -0.47875 95 ft 15 kts 359°
2026-04-18 09:03 51.47564 -0.47826 96 ft 15 kts 57°
2026-04-18 09:03 51.47580 -0.47656 96 ft 16 kts 88°
2026-04-18 09:03 51.47584 -0.47480 96 ft 16 kts 88°
2026-04-18 09:03 51.47582 -0.47303 97 ft 16 kts 89°
2026-04-18 09:04 51.47584 -0.47125 98 ft 16 kts 90°
2026-04-18 09:04 51.47584 -0.46947 100 ft 16 kts 90°
2026-04-18 09:04 51.47590 -0.46768 98 ft 16 kts 89°
2026-04-18 09:04 51.47593 -0.46578 98 ft 18 kts 89°
2026-04-18 09:05 51.47593 -0.46371 97 ft 19 kts 90°
2026-04-18 09:05 51.47594 -0.46143 98 ft 22 kts 90°
2026-04-18 09:05 51.47593 -0.45885 96 ft 24 kts 90°
2026-04-18 09:05 51.47597 -0.45604 94 ft 26 kts 89°
2026-04-18 09:06 51.47597 -0.45382 95 ft 16 kts 91°
2026-04-18 09:06 51.47597 -0.45208 96 ft 16 kts 90°
2026-04-18 09:06 51.47598 -0.45034 97 ft 16 kts 90°
2026-04-18 09:06 51.47599 -0.44860 98 ft 16 kts 90°
2026-04-18 09:07 51.47599 -0.44678 98 ft 20 kts 90°
2026-04-18 09:07 51.47600 -0.44385 96 ft 28 kts 90°
2026-04-18 09:07 51.47594 -0.44069 96 ft 28 kts 90°
2026-04-18 09:07 51.47593 -0.43752 96 ft 28 kts 90°
2026-04-18 09:08 51.47639 -0.43494 98 ft 24 kts 52°
2026-04-18 09:08 51.47749 -0.43451 98 ft 12 kts 322°
2026-04-18 09:08 51.47764 -0.43579 95 ft 17 kts 270°
2026-04-18 09:08 51.47764 -0.44247 93 ft 115 kts 270°
2026-04-18 09:09 51.47756 -0.46131 404 ft 206 kts 270°
2026-04-18 09:09 51.47741 -0.48450 1287 ft 217 kts 270°
2026-04-18 09:09 51.47727 -0.51050 2733 ft 235 kts 270°
2026-04-18 09:09 51.47467 -0.53526 4260 ft 228 kts 245°
2026-04-18 09:10 51.46341 -0.55385 5199 ft 245 kts 210°
2026-04-18 09:10 51.44618 -0.55987 5893 ft 268 kts 179°
2026-04-18 09:10 51.42836 -0.55000 5979 ft 280 kts 146°
2026-04-18 09:10 51.41396 -0.52868 6014 ft 285 kts 135°
2026-04-18 09:11 51.40067 -0.50503 6009 ft 285 kts 134°
2026-04-18 09:11 51.38760 -0.48189 6000 ft 282 kts 135°
2026-04-18 09:11 51.37418 -0.45916 6002 ft 280 kts 136°
2026-04-18 09:11 51.36048 -0.43685 5985 ft 281 kts 137°
2026-04-18 09:12 51.34667 -0.41471 6006 ft 281 kts 137°
2026-04-18 09:12 51.33284 -0.39267 5995 ft 282 kts 138°
2026-04-18 09:12 51.32036 -0.36903 5985 ft 279 kts 118°
2026-04-18 09:12 51.31612 -0.33869 6009 ft 284 kts 90°
2026-04-18 09:13 51.31689 -0.30679 6032 ft 291 kts 88°
2026-04-18 09:13 51.31755 -0.27435 6003 ft 291 kts 88°
2026-04-18 09:13 51.31804 -0.24226 6005 ft 286 kts 90°
2026-04-18 09:13 51.31778 -0.21062 5993 ft 283 kts 92°
2026-04-18 09:14 51.31726 -0.17912 6007 ft 286 kts 92°
2026-04-18 09:14 51.31671 -0.14719 6011 ft 289 kts 92°
2026-04-18 09:14 51.31624 -0.11511 6009 ft 289 kts 91°
2026-04-18 09:14 51.31577 -0.08304 5997 ft 289 kts 92°
2026-04-18 09:15 51.31529 -0.05097 6001 ft 289 kts 91°
2026-04-18 09:15 51.31481 -0.01888 5993 ft 289 kts 92°
2026-04-18 09:15 51.31433 0.01325 5924 ft 289 kts 93°
2026-04-18 09:15 51.31383 0.04526 5906 ft 288 kts 93°
2026-04-18 09:16 51.31333 0.07722 5883 ft 288 kts 93°
2026-04-18 09:16 51.31281 0.10930 5871 ft 289 kts 93°
2026-04-18 09:16 51.31228 0.14147 5854 ft 289 kts 93°
2026-04-18 09:16 51.31175 0.17360 5839 ft 289 kts 93°
2026-04-18 09:17 51.31120 0.20574 5820 ft 291 kts 93°
2026-04-18 09:17 51.31066 0.23811 5801 ft 292 kts 93°
2026-04-18 09:17 51.31011 0.27059 5786 ft 294 kts 93°
2026-04-18 09:17 51.30955 0.30326 5774 ft 294 kts 93°
2026-04-18 09:18 51.30897 0.33586 5755 ft 293 kts 93°
2026-04-18 09:18 51.30838 0.36840 5745 ft 292 kts 93°
2026-04-18 09:18 51.30782 0.40071 5750 ft 290 kts 93°
2026-04-18 09:18 51.30721 0.43298 5734 ft 290 kts 93°
2026-04-18 09:19 51.30528 0.46481 5852 ft 288 kts 104°
2026-04-18 09:19 51.30064 0.49601 6801 ft 291 kts 109°
2026-04-18 09:19 51.29539 0.52737 7916 ft 294 kts 109°
2026-04-18 09:19 51.29006 0.55923 9013 ft 300 kts 108°
2026-04-18 09:20 51.28470 0.59175 10061 ft 306 kts 108°
2026-04-18 09:20 51.27925 0.62526 10848 ft 321 kts 108°
2026-04-18 09:20 51.27351 0.66096 11184 ft 353 kts 107°
2026-04-18 09:20 51.26720 0.70064 11452 ft 384 kts 107°
2026-04-18 09:21 51.26054 0.74298 12202 ft 399 kts 107°
2026-04-18 09:21 51.25376 0.78651 13187 ft 408 kts 107°
2026-04-18 09:21 51.24686 0.83082 14226 ft 415 kts 107°
2026-04-18 09:21 51.23984 0.87580 15217 ft 420 kts 107°
2026-04-18 09:22 51.23270 0.92138 16205 ft 426 kts 107°
2026-04-18 09:22 51.22544 0.96753 17192 ft 432 kts 107°
2026-04-18 09:22 51.21832 1.01261 18122 ft 438 kts 107°
2026-04-18 09:22 51.21082 1.06000 18957 ft 444 kts 107°
2026-04-18 09:23 51.20317 1.10813 19737 ft 451 kts 107°
2026-04-18 09:23 51.19541 1.15685 20525 ft 456 kts 108°
2026-04-18 09:23 51.18754 1.20617 21308 ft 462 kts 108°
2026-04-18 09:23 51.17954 1.25616 22079 ft 468 kts 108°
2026-04-18 09:24 51.17143 1.30664 22815 ft 474 kts 108°
2026-04-18 09:24 51.16391 1.35828 23541 ft 481 kts 104°
2026-04-18 09:24 51.15938 1.41148 24167 ft 490 kts 97°
2026-04-18 09:24 51.15689 1.46596 24718 ft 496 kts 96°
2026-04-18 09:25 51.15459 1.52108 25269 ft 502 kts 96°
2026-04-18 09:25 51.15221 1.57677 25834 ft 507 kts 97°
2026-04-18 09:25 51.14965 1.63296 26392 ft 511 kts 97°
2026-04-18 09:25 51.14692 1.68978 26927 ft 516 kts 98°
2026-04-18 09:26 51.14405 1.74701 27450 ft 521 kts 98°
2026-04-18 09:26 51.14210 1.78524 27782 ft 525 kts 98°
2026-04-18 09:26 51.13809 1.86318 28444 ft 531 kts 98°
2026-04-18 09:26 51.13506 1.92204 28859 ft 536 kts 99°
2026-04-18 09:27 51.13302 1.96120 29128 ft 539 kts 99°
2026-04-18 09:27 51.13001 2.01870 29519 ft 544 kts 99°
2026-04-18 09:27 51.12681 2.07888 29931 ft 547 kts 99°
2026-04-18 09:27 51.12358 2.13925 30543 ft 545 kts 99°
2026-04-18 09:28 51.12041 2.19874 31466 ft 534 kts 99°
2026-04-18 09:28 51.11727 2.25716 32388 ft 525 kts 99°
2026-04-18 09:28 51.11412 2.31483 33108 ft 522 kts 99°
2026-04-18 09:28 51.11090 2.37257 33234 ft 528 kts 99°
2026-04-18 09:29 51.10433 2.48906 33230 ft 526 kts 99°
2026-04-18 09:29 51.09774 2.60449 33216 ft 523 kts 100°
2026-04-18 09:30 51.08449 2.71704 33216 ft 514 kts 111°
2026-04-18 09:30 51.06414 2.82588 33237 ft 514 kts 112°
2026-04-18 09:31 51.04371 2.93473 33226 ft 515 kts 111°
2026-04-18 09:31 51.02390 3.04216 33231 ft 516 kts 111°
2026-04-18 09:32 51.00376 3.15179 33224 ft 517 kts 111°
2026-04-18 09:32 50.98351 3.26129 33217 ft 517 kts 111°
2026-04-18 09:33 50.96311 3.37077 33208 ft 516 kts 111°
2026-04-18 09:33 50.94266 3.47982 33208 ft 516 kts 111°
2026-04-18 09:34 50.92212 3.58886 33212 ft 516 kts 111°
2026-04-18 09:34 50.90142 3.69759 33216 ft 515 kts 112°
2026-04-18 09:35 50.88039 3.80606 33207 ft 515 kts 112°
2026-04-18 09:35 50.85931 3.91417 33226 ft 514 kts 112°
2026-04-18 09:36 50.83860 4.02000 33229 ft 513 kts 112°
2026-04-18 09:36 50.81741 4.12778 33237 ft 513 kts 112°
2026-04-18 09:37 50.79614 4.23538 33200 ft 512 kts 112°
2026-04-18 09:37 50.77480 4.34276 33233 ft 512 kts 112°
2026-04-18 09:38 50.75335 4.45007 33234 ft 513 kts 112°
2026-04-18 09:38 50.73177 4.55754 33241 ft 513 kts 112°
2026-04-18 09:39 50.71033 4.66510 33215 ft 514 kts 111°
2026-04-18 09:39 50.68953 4.77288 33216 ft 513 kts 111°
2026-04-18 09:40 50.66862 4.88037 33211 ft 512 kts 111°
2026-04-18 09:40 50.64727 4.98738 33215 ft 511 kts 112°
2026-04-18 09:41 50.62571 5.09204 33213 ft 511 kts 112°
2026-04-18 09:41 50.60387 5.19759 33210 ft 510 kts 112°
2026-04-18 09:42 50.58194 5.30358 33207 ft 509 kts 112°
2026-04-18 09:42 50.55994 5.40943 33200 ft 509 kts 112°
2026-04-18 09:43 50.53785 5.51519 33203 ft 509 kts 112°
2026-04-18 09:43 50.51569 5.62072 33198 ft 508 kts 112°
2026-04-18 09:44 50.49498 5.72684 33194 ft 508 kts 109°
2026-04-18 09:44 50.47558 5.83341 33200 ft 508 kts 109°
2026-04-18 09:45 50.45587 5.93984 33193 ft 507 kts 110°
2026-04-18 09:45 50.43619 6.04394 33168 ft 507 kts 110°
2026-04-18 09:46 50.41603 6.14969 33166 ft 504 kts 110°
2026-04-18 09:46 50.40605 6.20195 32956 ft 496 kts 110°
2026-04-18 09:46 50.39620 6.25345 32404 ft 492 kts 110°
2026-04-18 09:47 50.38630 6.30493 31409 ft 497 kts 110°
2026-04-18 09:47 50.37624 6.35702 30526 ft 501 kts 109°
2026-04-18 09:47 50.36676 6.40963 29659 ft 502 kts 105°
2026-04-18 09:47 50.36008 6.46317 28992 ft 500 kts 99°
2026-04-18 09:48 50.35654 6.51685 28516 ft 491 kts 96°
2026-04-18 09:48 50.35366 6.56964 28033 ft 484 kts 96°
2026-04-18 09:48 50.35078 6.62187 27433 ft 480 kts 96°
2026-04-18 09:48 50.34768 6.67379 26796 ft 477 kts 97°
2026-04-18 09:49 50.34440 6.72531 26200 ft 474 kts 97°
2026-04-18 09:49 50.34112 6.77636 25645 ft 470 kts 97°
2026-04-18 09:49 50.33653 6.82672 25352 ft 468 kts 103°
2026-04-18 09:49 50.32856 6.87622 25223 ft 466 kts 109°
2026-04-18 09:50 50.31809 6.92387 25200 ft 461 kts 115°
2026-04-18 09:50 50.30487 6.96928 25204 ft 458 kts 118°
2026-04-18 09:50 50.29158 7.01256 25215 ft 459 kts 118°
2026-04-18 09:50 50.27780 7.05774 25218 ft 461 kts 117°
2026-04-18 09:51 50.26415 7.10308 25215 ft 461 kts 117°
2026-04-18 09:51 50.25053 7.14855 25211 ft 462 kts 117°
2026-04-18 09:51 50.23693 7.19401 25211 ft 462 kts 117°
2026-04-18 09:51 50.22332 7.23944 25209 ft 462 kts 117°
2026-04-18 09:52 50.20969 7.28478 25206 ft 461 kts 117°
2026-04-18 09:52 50.19636 7.32953 25204 ft 461 kts 116°
2026-04-18 09:52 50.18458 7.37611 25180 ft 461 kts 112°
2026-04-18 09:52 50.17355 7.42308 25187 ft 460 kts 111°
2026-04-18 09:53 50.16260 7.46989 25193 ft 460 kts 111°
2026-04-18 09:53 50.15156 7.51666 25187 ft 459 kts 112°
2026-04-18 09:53 50.14043 7.56330 25182 ft 459 kts 112°
2026-04-18 09:53 50.12924 7.60985 25180 ft 459 kts 112°
2026-04-18 09:54 50.11766 7.65606 25183 ft 457 kts 115°
2026-04-18 09:54 50.10367 7.70030 24952 ft 452 kts 121°
2026-04-18 09:54 50.08697 7.74139 24446 ft 447 kts 127°
2026-04-18 09:54 50.06902 7.78056 23888 ft 444 kts 128°
2026-04-18 09:55 50.05117 7.81961 23285 ft 441 kts 127°
2026-04-18 09:55 50.03371 7.85850 22666 ft 437 kts 127°
2026-04-18 09:55 50.01686 7.89751 22044 ft 430 kts 121°
2026-04-18 09:55 50.00650 7.94111 21229 ft 436 kts 100°
2026-04-18 09:56 50.00532 7.98800 20632 ft 433 kts 84°
2026-04-18 09:56 50.01154 8.03142 20148 ft 425 kts 69°
2026-04-18 09:56 50.02200 8.07412 19591 ft 422 kts 67°
2026-04-18 09:56 50.03294 8.11645 19039 ft 421 kts 66°
2026-04-18 09:57 50.04374 8.15844 18721 ft 413 kts 67°
2026-04-18 09:57 50.05401 8.19931 18649 ft 399 kts 67°
2026-04-18 09:57 50.06378 8.23898 18356 ft 386 kts 68°
2026-04-18 09:57 50.07307 8.27719 17576 ft 370 kts 68°
2026-04-18 09:58 50.08197 8.31395 16824 ft 356 kts 68°
2026-04-18 09:58 50.09051 8.34936 16106 ft 344 kts 68°
2026-04-18 09:58 50.09879 8.38373 15408 ft 334 kts 68°
2026-04-18 09:58 50.10682 8.41713 14719 ft 325 kts 68°
2026-04-18 09:59 50.11463 8.44972 14057 ft 317 kts 68°
2026-04-18 09:59 50.12227 8.48157 13319 ft 311 kts 68°
2026-04-18 09:59 50.12976 8.51287 12589 ft 305 kts 68°
2026-04-18 10:00 50.14428 8.57363 11181 ft 294 kts 69°
2026-04-18 10:00 50.15134 8.60322 10504 ft 289 kts 70°
2026-04-18 10:00 50.15820 8.63207 9815 ft 286 kts 70°
2026-04-18 10:00 50.16517 8.66140 9075 ft 283 kts 70°
2026-04-18 10:01 50.17187 8.68960 8359 ft 280 kts 70°
2026-04-18 10:01 50.17861 8.71798 7662 ft 277 kts 70°
2026-04-18 10:01 50.18526 8.74609 6993 ft 275 kts 71°
2026-04-18 10:01 50.19189 8.77406 6452 ft 273 kts 71°
2026-04-18 10:02 50.19847 8.80192 6334 ft 271 kts 71°
2026-04-18 10:02 50.20490 8.82919 6593 ft 266 kts 71°
2026-04-18 10:02 50.21135 8.85660 6962 ft 272 kts 71°
2026-04-18 10:02 50.21801 8.88489 7346 ft 276 kts 71°
2026-04-18 10:03 50.22466 8.91328 7567 ft 282 kts 71°
2026-04-18 10:03 50.23132 8.94178 7567 ft 282 kts 71°
2026-04-18 10:03 50.23807 8.97062 7681 ft 275 kts 71°
2026-04-18 10:03 50.24459 8.99848 7927 ft 273 kts 71°
2026-04-18 10:04 50.25092 9.02563 8076 ft 280 kts 71°
2026-04-18 10:04 50.25755 9.05410 8051 ft 284 kts 71°
2026-04-18 10:04 50.26428 9.08301 7980 ft 282 kts 71°
2026-04-18 10:04 50.27087 9.11133 7891 ft 279 kts 71°
2026-04-18 10:05 50.27754 9.14004 7798 ft 276 kts 71°
2026-04-18 10:05 50.28406 9.16820 7747 ft 276 kts 71°
2026-04-18 10:05 50.29060 9.19644 7660 ft 276 kts 71°
2026-04-18 10:05 50.29712 9.22465 7587 ft 276 kts 71°
2026-04-18 10:06 50.30356 9.25255 7506 ft 276 kts 71°
2026-04-18 10:06 50.31016 9.28116 7417 ft 277 kts 71°
2026-04-18 10:06 50.31663 9.30927 7348 ft 277 kts 71°
2026-04-18 10:06 50.32320 9.33781 7268 ft 277 kts 71°
2026-04-18 10:07 50.32969 9.36621 7184 ft 276 kts 73°
2026-04-18 10:07 50.33513 9.39498 7122 ft 275 kts 75°
2026-04-18 10:07 50.34041 9.42380 7051 ft 276 kts 75°
2026-04-18 10:07 50.34572 9.45261 6996 ft 275 kts 75°
2026-04-18 10:08 50.35097 9.48119 6983 ft 272 kts 75°
2026-04-18 10:08 50.35622 9.50959 6978 ft 270 kts 75°
2026-04-18 10:08 50.36142 9.53779 6982 ft 270 kts 75°
2026-04-18 10:08 50.36667 9.56625 6984 ft 274 kts 75°
2026-04-18 10:09 50.37197 9.59503 6988 ft 276 kts 75°
2026-04-18 10:09 50.37633 9.62401 6950 ft 273 kts 89°
2026-04-18 10:09 50.37518 9.64392 6944 ft 286 kts 108°
2026-04-18 10:09 50.36009 9.68201 7018 ft 338 kts 139°
2026-04-18 10:10 50.33946 9.70357 7081 ft 377 kts 155°
2026-04-18 10:10 50.32325 9.71402 7254 ft 374 kts 163°
2026-04-18 10:10 50.30041 9.71746 7986 ft 293 kts 192°
2026-04-18 10:10 50.28157 9.70659 6960 ft 292 kts 209°
2026-04-18 10:11 50.26547 9.69082 6922 ft 259 kts 224°
2026-04-18 10:11 50.25548 9.66787 6969 ft 258 kts 244°
2026-04-18 10:11 50.24877 9.64203 6960 ft 254 kts 252°
2026-04-18 10:11 50.24623 9.61483 6966 ft 256 kts 266°
2026-04-18 10:12 50.24591 9.58683 6970 ft 259 kts 269°
2026-04-18 10:12 50.24669 9.55858 6960 ft 261 kts 272°
2026-04-18 10:12 50.24690 9.53068 6964 ft 255 kts 266°
2026-04-18 10:12 50.24873 9.50313 6812 ft 259 kts 284°
2026-04-18 10:13 50.25435 9.47615 6764 ft 261 kts 283°
2026-04-18 10:13 50.25509 9.44850 6656 ft 254 kts 253°
2026-04-18 10:13 50.24986 9.42234 6688 ft 255 kts 252°
2026-04-18 10:13 50.24485 9.39540 6630 ft 261 kts 252°
2026-04-18 10:14 50.23964 9.36837 6557 ft 258 kts 251°
2026-04-18 10:14 50.23421 9.34176 6496 ft 256 kts 250°
2026-04-18 10:14 50.22861 9.31539 6308 ft 257 kts 250°
2026-04-18 10:14 50.22288 9.28929 6209 ft 252 kts 250°
2026-04-18 10:15 50.21719 9.26384 6166 ft 246 kts 249°
2026-04-18 10:15 50.21143 9.23841 6060 ft 249 kts 249°
2026-04-18 10:15 50.20556 9.21278 5988 ft 254 kts 249°
2026-04-18 10:15 50.19970 9.18731 5963 ft 252 kts 249°
2026-04-18 10:16 50.19368 9.16122 5915 ft 251 kts 249°
2026-04-18 10:16 50.18775 9.13564 5858 ft 251 kts 249°
2026-04-18 10:16 50.18182 9.11014 5764 ft 250 kts 249°
2026-04-18 10:16 50.17590 9.08467 5609 ft 245 kts 249°
2026-04-18 10:17 50.17025 9.06036 5221 ft 233 kts 250°
2026-04-18 10:17 50.16484 9.03716 5029 ft 228 kts 250°
2026-04-18 10:17 50.15939 9.01385 5059 ft 230 kts 250°
2026-04-18 10:17 50.15390 8.99043 5002 ft 228 kts 250°
2026-04-18 10:18 50.14847 8.96731 5008 ft 226 kts 250°
2026-04-18 10:18 50.14310 8.94433 5010 ft 226 kts 250°
2026-04-18 10:18 50.13768 8.92126 5009 ft 227 kts 250°
2026-04-18 10:18 50.13232 8.89850 5011 ft 227 kts 250°
2026-04-18 10:19 50.12689 8.87544 5020 ft 227 kts 250°
2026-04-18 10:19 50.12156 8.85230 4875 ft 225 kts 251°
2026-04-18 10:19 50.11645 8.82987 4548 ft 208 kts 250°
2026-04-18 10:19 50.11171 8.80968 4270 ft 193 kts 250°
2026-04-18 10:20 50.10727 8.79103 3993 ft 174 kts 250°
2026-04-18 10:20 50.10332 8.77446 3762 ft 155 kts 250°
2026-04-18 10:20 50.09959 8.75886 3567 ft 155 kts 251°
2026-04-18 10:20 50.09580 8.74297 3354 ft 156 kts 251°
2026-04-18 10:21 50.09200 8.72696 3114 ft 158 kts 251°
2026-04-18 10:21 50.08816 8.71094 2892 ft 158 kts 251°
2026-04-18 10:21 50.08429 8.69487 2680 ft 159 kts 251°
2026-04-18 10:21 50.08040 8.67881 2473 ft 159 kts 253°
2026-04-18 10:22 50.07661 8.66256 2210 ft 159 kts 252°
2026-04-18 10:22 50.07276 8.64636 2001 ft 161 kts 252°
2026-04-18 10:22 50.06890 8.63019 1746 ft 156 kts 252°
2026-04-18 10:22 50.06525 8.61502 1523 ft 144 kts 252°
2026-04-18 10:23 50.06181 8.60059 1333 ft 142 kts 251°
2026-04-18 10:23 50.05834 8.58605 1149 ft 144 kts 251°
2026-04-18 10:23 50.05484 8.57145 934 ft 144 kts 252°
2026-04-18 10:23 50.05132 8.55674 725 ft 146 kts 251°
2026-04-18 10:24 50.04796 8.54249 507 ft 135 kts 251°
2026-04-18 10:24 50.04481 8.52952 377 ft 118 kts 251°
2026-04-18 10:24 50.04222 8.51870 370 ft 92 kts 249°
2026-04-18 10:24 50.04062 8.51207 361 ft 50 kts 244°
2026-04-18 10:25 50.03899 8.50911 356 ft 15 kts 221°
2026-04-18 10:25 50.03865 8.50867 356 ft 0 kts 217°
2026-04-18 10:25 50.03836 8.50850 356 ft 12 kts 187°
2026-04-18 10:26 50.03788 8.50895 357 ft 0 kts 124°
2026-04-18 10:26 50.03785 8.50939 354 ft 9 kts 78°
2026-04-18 10:26 50.03814 8.51067 356 ft 17 kts 70°
2026-04-18 10:26 50.03856 8.51237 358 ft 17 kts 70°
2026-04-18 10:27 50.03894 8.51407 359 ft 17 kts 71°
2026-04-18 10:27 50.03936 8.51577 362 ft 17 kts 67°
2026-04-18 10:27 50.03978 8.51753 361 ft 18 kts 70°
2026-04-18 10:27 50.04021 8.51936 363 ft 18 kts 70°
2026-04-18 10:28 50.04065 8.52120 363 ft 18 kts 69°
2026-04-18 10:28 50.04113 8.52302 366 ft 18 kts 67°
2026-04-18 10:28 50.04158 8.52484 367 ft 18 kts 71°
2026-04-18 10:28 50.04198 8.52669 370 ft 18 kts 71°
2026-04-18 10:29 50.04243 8.52850 370 ft 18 kts 69°
2026-04-18 10:29 50.04288 8.53032 377 ft 18 kts 70°
2026-04-18 10:29 50.04330 8.53215 378 ft 18 kts 70°
2026-04-18 10:29 50.04374 8.53398 380 ft 18 kts 69°
2026-04-18 10:30 50.04401 8.53587 381 ft 18 kts 83°
2026-04-18 10:30 50.04414 8.53790 378 ft 20 kts 84°
2026-04-18 10:30 50.04429 8.54007 382 ft 20 kts 84°
2026-04-18 10:30 50.04443 8.54231 378 ft 24 kts 84°
2026-04-18 10:31 50.04442 8.54527 360 ft 27 kts 109°
2026-04-18 10:31 50.04335 8.54744 365 ft 25 kts 146°
2026-04-18 10:31 50.04218 8.54825 366 ft 17 kts 159°
2026-04-18 10:31 50.04105 8.54892 364 ft 17 kts 159°
2026-04-18 10:32 50.04030 8.55013 368 ft 17 kts 89°
2026-04-18 10:32 50.04061 8.55195 366 ft 17 kts 71°
2026-04-18 10:32 50.04105 8.55373 368 ft 19 kts 69°
2026-04-18 10:32 50.04152 8.55566 366 ft 19 kts 69°
2026-04-18 10:33 50.04200 8.55764 365 ft 21 kts 69°
2026-04-18 10:33 50.04249 8.55982 360 ft 21 kts 71°
2026-04-18 10:33 50.04301 8.56202 361 ft 22 kts 70°
2026-04-18 10:33 50.04354 8.56421 359 ft 22 kts 70°
2026-04-18 10:34 50.04407 8.56641 362 ft 22 kts 69°
2026-04-18 10:34 50.04469 8.56834 363 ft 19 kts 36°
2026-04-18 10:34 50.04564 8.56972 361 ft 16 kts 59°
2026-04-18 10:34 50.04590 8.57042 360 ft 0 kts 60°